Omaha Offutt, NE

11:08 PM CDT on March 25, 2017 (GMT -0500)
Offutt Air Force Base

Weather History for KOFF - October, 2011

Change the Weather History Date:

Friday, October 14, 2011

  Actual Average Record
Temperature  
Mean Temperature 52 °F -  
Max Temperature 61 °F 64 °F 84 °F (1996)
Min Temperature 42 °F 43 °F 23 °F (2006)
Degree Days  
Heating Degree Days 14    
Growing Degree Days 2 (Base 50)    
Moisture  
Dew Point 35 °F    
Average Humidity 58    
Maximum Humidity 85    
Minimum Humidity 33    
Precipitation  
Precipitation 0.00 in - - ()
Sea Level Pressure  
Sea Level Pressure 29.95 in    
Wind  
Wind Speed 10 mph (WNW)    
Max Wind Speed 22 mph    
Max Gust Speed 28 mph    
Visibility 10 miles    
Events      
Averages and records for this station are not official NWS values.
T = Trace of Precipitation, MM = Missing Value Source: NWS Daily Summary

Daily Weather History Graph

Daily Weather History Graph

Search for Another Location

Airport or City:

Trip Planner

Search our weather history database for the weather conditions in past years. The results will help you decide how hot, cold, wet, or windy it might be!

Date:

Astronomy

Oct. 14, 2011 Rise Set
Actual Time 7:33 AM CDT 6:44 PM CDT
Civil Twilight 7:06 AM CDT 7:12 PM CDT
Nautical Twilight 6:34 AM CDT 7:44 PM CDT
Astronomical Twilight 6:02 AM CDT 8:16 PM CDT
Moon 7:57 PM CDT (10/14) 10:05 AM CDT (10/14)
Length of Visible Light 12h 06m
Length of Day
11h 10m
Waning Gibbous, 94% of the Moon is Illuminated
Oct 14
Waning Gibbous
Oct 19
Last Quarter
Oct 26
New
Nov 2
First Quarter
Nov 10
Full

Hourly Weather History & Observations

Time (CDT) Temp. Windchill Dew Point Humidity Pressure Visibility Wind Dir Wind Speed Gust Speed Precip Events Conditions
12:55 AM 50.9 °F - 36.9 °F 59% 29.83 in 10.0 mi West 5.8 mph - N/A   Clear
1:55 AM 44.6 °F 40.2 °F 40.1 °F 84% 29.84 in 10.0 mi WNW 8.1 mph - N/A   Clear
2:55 AM 45.5 °F 40.8 °F 39.6 °F 80% 29.85 in 10.0 mi NW 9.2 mph - N/A   Clear
3:55 AM 43.9 °F 39.3 °F 39.6 °F 85% 29.85 in 10.0 mi NW 8.1 mph - N/A   Clear
4:55 AM 45.3 °F 40.1 °F 37.4 °F 74% 29.87 in 10.0 mi NW 10.4 mph - N/A   Clear
5:55 AM 45.3 °F 41.1 °F 37.2 °F 73% 29.88 in 10.0 mi NW 8.1 mph - N/A   Clear
6:55 AM 44.2 °F 39.2 °F 37.6 °F 77% 29.91 in 10.0 mi NW 9.2 mph - N/A   Clear
7:55 AM 43.2 °F 39.7 °F 38.5 °F 84% 29.94 in 10.0 mi NW 5.8 mph - N/A   Clear
8:55 AM 51.1 °F - 39.4 °F 64% 29.95 in 10.0 mi NW 9.2 mph - N/A   Clear
9:55 AM 54.7 °F - 38.8 °F 55% 29.96 in 10.0 mi NW 17.3 mph 24.2 mph N/A   Partly Cloudy
10:55 AM 57.2 °F - 38.1 °F 49% 29.97 in 10.0 mi NW 16.1 mph 24.2 mph N/A   Partly Cloudy
11:55 AM 58.3 °F - 36.9 °F 45% 29.97 in 10.0 mi WNW 17.3 mph 23.0 mph N/A   Partly Cloudy
12:55 PM 59.7 °F - 36.7 °F 42% 29.98 in 10.0 mi WNW 15.0 mph - N/A   Clear
1:55 PM 59.5 °F - 33.6 °F 38% 29.98 in 10.0 mi NW 13.8 mph 26.5 mph N/A   Partly Cloudy
2:55 PM 60.3 °F - 32.0 °F 34% 29.97 in 10.0 mi NW 21.9 mph 27.6 mph N/A   Partly Cloudy
3:55 PM 61.0 °F - 31.3 °F 33% 29.96 in 10.0 mi WNW 20.7 mph 25.3 mph N/A   Partly Cloudy
4:55 PM 59.9 °F - 30.2 °F 33% 29.96 in 10.0 mi WNW 20.7 mph 26.5 mph N/A   Scattered Clouds
5:55 PM 57.4 °F - 29.5 °F 35% 29.98 in 10.0 mi WNW 16.1 mph 21.9 mph N/A   Clear
6:55 PM 55.6 °F - 30.2 °F 38% 29.99 in 10.0 mi West 9.2 mph - N/A   Partly Cloudy
7:55 PM 50.0 °F - 32.0 °F 50% 30.01 in 10.0 mi WNW 6.9 mph - N/A   Clear
8:55 PM 46.2 °F 42.2 °F 32.5 °F 59% 30.02 in 10.0 mi WNW 8.1 mph - N/A   Clear
9:55 PM 45.1 °F 41.4 °F 32.4 °F 61% 30.03 in 10.0 mi West 6.9 mph - N/A   Clear
10:55 PM 42.4 °F 38.8 °F 33.8 °F 71% 30.04 in 10.0 mi NW 5.8 mph - N/A   Clear
11:55 PM 42.4 °F 38.8 °F 33.8 °F 71% 30.07 in 10.0 mi NW 5.8 mph - N/A   Clear